GW4786 Weather Reports


time (UTC)temp
C
wind
direction
speed
KPH
gust
KPH
rain 1hr
cm
rain 24hr
cm
rain mn
cm
humidity
%
barometer
mb
20260505171548 25 199 9.7 29.0 0.00 0.00 0.00 34 1010.9
20260505171032 25 183 12.9 29.0 0.00 0.00 0.00 36 1011.0
20260505170531 25 235 12.9 29.0 0.00 0.00 0.00 35 1011.1
20260505170040 25 192 11.3 29.0 0.00 0.00 0.00 36 1011.1
20260505165531 25 162 11.3 25.7 0.00 0.00 0.00 38 1011.2
20260505165031 25 212 11.3 25.7 0.00 0.00 0.00 39 1011.3
20260505164544 25 180 8.0 27.4 0.00 0.00 0.00 39 1011.3
20260505164032 25 206 12.9 32.2 0.00 0.00 0.00 41 1011.6
20260505163532 25 202 12.9 32.2 0.00 0.00 0.00 38 1011.7
20260505163039 25 172 11.3 30.6 0.00 0.00 0.00 40 1011.4
20260505162532 24 188 14.5 24.1 0.00 0.00 0.00 42 1011.6
20260505162032 25 166 12.9 30.6 0.00 0.00 0.00 40 1011.6
20260505161545 25 196 9.7 30.6 0.00 0.00 0.00 42 1011.8
20260505161032 25 148 11.3 20.9 0.00 0.00 0.00 40 1011.5
20260505160532 25 196 11.3 22.5 0.00 0.00 0.00 41 1011.5
20260505153043 25 284 3.2 22.5 0.00 0.00 0.00 42 1011.8
20260505152534 24 286 8.0 22.5 0.00 0.00 0.00 45 1011.9
20260505152031 24 221 4.8 20.9 0.00 0.00 0.00 44 1011.7
20260505151540 24 124 6.4 20.9 0.00 0.00 0.00 41 1011.6
20260505151031 24 157 8.0 24.1 0.00 0.00 0.00 41 1011.6
20260505150532 24 221 8.0 24.1 0.00 0.00 0.00 42 1011.6
20260505140527 22 254 8.0 22.5 0.00 0.00 0.00 47 1011.9
20260505140107 22 226 6.4 25.7 0.00 0.00 0.00 47 1011.9
20260505125029 18 204 6.4 14.5 0.00 0.00 0.00 58 1012.8
20260505124541 18 191 9.7 16.1 0.00 0.00 0.00 57 1012.7
20260505124030 18 180 6.4 16.1 0.00 0.00 0.00 58 1012.6
20260505123529 17 184 8.0 16.1 0.00 0.00 0.00 58 1012.5
20260505123049 17 184 8.0 16.1 0.00 0.00 0.00 59 1012.5
20260505122529 17 219 8.0 14.5 0.00 0.00 0.00 60 1012.5
20260505122031 17 225 6.4 14.5 0.00 0.00 0.00 61 1012.6
20260505121542 16 204 4.8 14.5 0.00 0.00 0.00 62 1012.5
20260505121029 16 176 4.8 16.1 0.00 0.00 0.00 63 1012.5
20260505120528 16 161 8.0 19.3 0.00 0.00 0.00 62 1012.3
20260505120046 16 153 8.0 20.9 0.00 0.00 0.00 62 1012.2
20260505115529 16 219 8.0 20.9 0.00 0.00 0.00 63 1012.2
20260505115029 15 163 11.3 17.7 0.00 0.00 0.00 63 1012.2
20260505114550 15 177 8.0 22.5 0.00 0.00 0.00 64 1012.2
20260505114030 15 217 11.3 22.5 0.00 0.00 0.00 64 1012.3
20260505113529 15 205 11.3 22.5 0.00 0.00 0.00 64 1012.3
20260505113047 15 183 9.7 19.3 0.00 0.00 0.00 64 1012.2
20260505112529 15 211 11.3 19.3 0.00 0.00 0.00 65 1012.1
20260505112029 15 219 6.4 19.3 0.00 0.00 0.00 65 1012.2
20260505111543 15 190 9.7 19.3 0.00 0.00 0.00 66 1012.0
20260505111028 15 221 9.7 22.5 0.00 0.00 0.00 66 1012.0
20260505110529 15 223 9.7 22.5 0.00 0.00 0.00 66 1011.7
20260505102029 14 175 8.0 12.9 0.00 0.00 0.00 68 1011.2
20260505101548 14 196 8.0 16.1 0.00 0.00 0.00 68 1011.1
20260505101029 14 173 8.0 16.1 0.00 0.00 0.00 68 1011.1
20260505100530 14 184 8.0 17.7 0.00 0.00 0.00 68 1011.1
20260505100045 14 160 9.7 20.9 0.00 0.00 0.00 68 1011.1
20260505095530 14 203 8.0 20.9 0.00 0.00 0.00 67 1011.1
20260505095034 14 186 9.7 14.5 0.00 0.00 0.00 68 1011.1
20260505094544 14 205 8.0 19.3 0.00 0.00 0.00 68 1011.0
20260505094031 14 192 8.0 19.3 0.00 0.00 0.00 68 1011.0
20260505093529 14 197 8.0 16.1 0.00 0.00 0.00 68 1011.0
20260505093050 14 193 8.0 14.5 0.00 0.00 0.00 69 1011.0
20260505092529 14 191 4.8 16.1 0.00 0.00 0.00 69 1011.1
20260505092029 14 194 8.0 16.1 0.00 0.00 0.00 69 1011.1
20260505091545 14 198 8.0 16.1 0.00 0.00 0.00 69 1011.0
20260505091028 14 219 6.4 14.5 0.00 0.00 0.00 69 1011.0
20260505090530 14 168 6.4 14.5 0.00 0.00 0.00 69 1010.9
20260505090040 14 159 6.4 14.5 0.00 0.00 0.00 69 1010.8
20260505085532 14 202 4.8 12.9 0.00 0.00 0.00 69 1010.9
20260505085033 14 197 6.4 22.5 0.00 0.00 0.00 69 1010.9
20260505084538 14 195 8.0 22.5 0.00 0.00 0.00 69 1010.9
20260505084030 14 182 6.4 16.1 0.00 0.00 0.00 68 1010.9
20260505083529 14 211 6.4 16.1 0.00 0.00 0.00 68 1011.0
20260505083049 15 207 6.4 16.1 0.00 0.00 0.00 68 1011.0
20260505082533 15 185 8.0 16.1 0.00 0.00 0.00 68 1011.0
20260505082029 15 146 6.4 14.5 0.00 0.00 0.00 67 1011.0
20260505081541 15 161 8.0 12.9 0.00 0.00 0.00 66 1010.9
20260505081031 15 173 6.4 14.5 0.00 0.00 0.00 66 1010.8
20260505080529 15 165 4.8 16.1 0.00 0.00 0.00 66 1010.8
20260505080044 15 156 8.0 16.1 0.00 0.00 0.00 65 1010.7
20260505075531 16 181 6.4 12.9 0.00 0.00 0.00 65 1010.7
20260505075030 16 184 6.4 16.1 0.00 0.00 0.00 64 1010.7
20260505074539 16 202 6.4 16.1 0.00 0.00 0.00 64 1010.6
20260505074030 16 215 6.4 17.7 0.00 0.00 0.00 64 1010.6
20260505073530 16 205 4.8 17.7 0.00 0.00 0.00 63 1010.5
20260505073052 16 171 8.0 16.1 0.00 0.00 0.00 64 1010.5
20260505072529 16 199 6.4 14.5 0.00 0.00 0.00 64 1010.5
20260505072029 16 180 8.0 14.5 0.00 0.00 0.00 64 1010.5
20260505071553 16 242 6.4 11.3 0.00 0.00 0.00 64 1010.4
20260505071031 16 198 4.8 12.9 0.00 0.00 0.00 65 1010.5
20260505070529 15 186 6.4 12.9 0.00 0.00 0.00 65 1010.6
20260505070041 15 171 6.4 17.7 0.00 0.00 0.00 65 1010.6
20260505065529 15 196 6.4 17.7 0.00 0.00 0.00 65 1010.6
20260505065028 15 211 6.4 17.7 0.00 0.00 0.00 65 1010.7
20260505064542 15 175 6.4 16.1 0.00 0.00 0.00 65 1010.6
20260505064029 15 159 4.8 14.5 0.00 0.00 0.00 65 1010.7
20260505063528 15 175 6.4 14.5 0.00 0.00 0.00 65 1010.8
20260505063041 15 161 3.2 9.7 0.00 0.00 0.00 65 1010.7
20260505062531 15 202 3.2 9.7 0.00 0.00 0.00 65 1010.8
20260505062027 15 207 3.2 8.0 0.00 0.00 0.00 65 1010.8
20260505061538 15 181 3.2 6.4 0.00 0.00 0.00 65 1010.8
20260505061028 15 160 3.2 11.3 0.00 0.00 0.00 65 1010.9
20260505060529 16 210 4.8 9.7 0.00 0.00 0.00 65 1010.8
20260505060046 16 188 4.8 9.7 0.00 0.00 0.00 64 1010.8
20260505055532 16 169 4.8 9.7 0.00 0.00 0.00 64 1010.8
20260505055029 16 171 4.8 9.7 0.00 0.00 0.00 63 1010.9
20260505054549 16 192 3.2 8.0 0.00 0.00 0.00 63 1010.8
20260505054028 16 183 3.2 9.7 0.00 0.00 0.00 62 1010.9
20260505053528 16 186 4.8 16.1 0.00 0.00 0.00 62 1011.0
20260505053045 16 193 8.0 16.1 0.00 0.00 0.00 61 1011.0
20260505052527 16 203 8.0 17.7 0.00 0.00 0.00 61 1011.0
20260505052027 16 215 6.4 17.7 0.00 0.00 0.00 61 1011.0
20260505051557 16 178 8.0 17.7 0.00 0.00 0.00 61 1010.9
20260505051028 16 196 11.3 20.9 0.00 0.00 0.00 61 1010.8
20260505050530 16 211 6.4 20.9 0.00 0.00 0.00 61 1010.8
20260505041544 16 175 4.8 11.3 0.00 0.00 0.00 57 1010.8
20260505041030 16 160 4.8 12.9 0.00 0.00 0.00 57 1010.8
20260505040530 16 202 4.8 12.9 0.00 0.00 0.00 57 1010.8
20260505040044 16 189 4.8 12.9 0.00 0.00 0.00 57 1010.8
20260505035532 16 206 4.8 11.3 0.00 0.00 0.00 57 1010.7
20260505035030 16 206 4.8 11.3 0.00 0.00 0.00 57 1010.8
20260505034541 16 210 6.4 16.1 0.00 0.00 0.00 57 1010.8
20260505034030 16 188 8.0 16.1 0.00 0.00 0.00 57 1010.7
20260505033529 16 214 6.4 14.5 0.00 0.00 0.00 57 1010.7
20260505033039 16 180 6.4 12.9 0.00 0.00 0.00 57 1010.8
20260505032530 16 184 4.8 9.7 0.00 0.00 0.00 57 1010.7
20260505032030 16 191 4.8 11.3 0.00 0.00 0.00 57 1010.6
20260505031552 16 205 3.2 11.3 0.00 0.00 0.00 56 1010.7
20260505031027 16 209 4.8 14.5 0.00 0.00 0.00 56 1010.7
20260505030530 16 167 4.8 14.5 0.00 0.00 0.00 55 1010.7
20260505030044 17 143 4.8 14.5 0.00 0.00 0.00 55 1010.7
20260505025531 17 184 3.2 8.0 0.00 0.00 0.00 55 1010.8
20260505025026 17 186 4.8 8.0 0.00 0.00 0.00 54 1010.8
20260505024543 17 154 1.6 6.4 0.00 0.00 0.00 54 1010.8
20260505024029 17 175 3.2 8.0 0.00 0.00 0.00 54 1010.9
20260505023531 17 152 3.2 11.3 0.00 0.00 0.00 53 1010.9
20260505023046 17 144 3.2 11.3 0.00 0.00 0.00 53 1010.8
20260505022526 17 198 3.2 8.0 0.00 0.00 0.00 52 1010.9
20260505022029 17 169 3.2 6.4 0.00 0.00 0.00 52 1010.8
20260505021541 18 157 3.2 6.4 0.00 0.00 0.00 52 1010.8
20260505021029 18 197 1.6 6.4 0.00 0.00 0.00 51 1010.7
20260505020531 18 161 3.2 8.0 0.00 0.00 0.00 50 1010.6
20260505020039 18 186 1.6 8.0 0.00 0.00 0.00 49 1010.6
20260505015532 18 164 3.2 9.7 0.00 0.00 0.00 49 1010.5
20260505015033 18 137 4.8 9.7 0.00 0.00 0.00 49 1010.6
20260505014546 18 176 3.2 8.0 0.00 0.00 0.00 49 1010.6
20260505014033 18 221 3.2 11.3 0.00 0.00 0.00 49 1010.6
20260505013530 18 174 4.8 11.3 0.00 0.00 0.00 48 1010.5
20260505013059 18 192 6.4 11.3 0.00 0.00 0.00 48 1010.3
20260505012530 18 175 1.6 12.9 0.00 0.00 0.00 48 1010.2
20260505012031 18 153 6.4 12.9 0.00 0.00 0.00 48 1010.1
20260505011544 18 195 4.8 12.9 0.00 0.00 0.00 47 1010.0
20260505011030 19 155 3.2 12.9 0.00 0.00 0.00 47 1010.1
20260505010530 19 183 6.4 12.9 0.00 0.00 0.00 46 1010.0
20260505010041 19 165 6.4 14.5 0.00 0.00 0.00 46 1010.0
20260505005534 19 150 4.8 16.1 0.00 0.00 0.00 45 1010.0
20260505005031 19 157 9.7 16.1 0.00 0.00 0.00 45 1009.9
20260505004550 20 144 6.4 14.5 0.00 0.00 0.00 45 1009.9
20260505004031 20 178 6.4 14.5 0.00 0.00 0.00 44 1009.9
20260505003533 20 201 8.0 14.5 0.00 0.00 0.00 44 1009.9
20260505003041 20 136 8.0 14.5 0.00 0.00 0.00 44 1009.9
20260505002530 20 175 8.0 17.7 0.00 0.00 0.00 44 1010.0
20260505002031 20 169 6.4 17.7 0.00 0.00 0.00 44 1010.0
20260505001541 20 136 6.4 12.9 0.00 0.00 0.00 43 1009.9
20260505001034 20 169 4.8 12.9 0.00 0.00 0.00 43 1009.9
20260505000533 20 142 6.4 12.9 0.00 0.00 0.00 43 1010.1
20260505000053 20 139 6.4 17.7 0.00 0.00 0.00 42 1010.0
20260504235530 20 178 6.4 17.7 0.00 0.00 0.00 42 1009.9
20260504235031 20 146 6.4 16.1 0.00 0.00 0.00 41 1009.7
20260504234540 21 182 8.0 16.1 0.00 0.00 0.00 40 1009.8
20260504234031 21 138 8.0 19.3 0.00 0.00 0.00 40 1009.7
20260504233530 21 198 11.3 19.3 0.00 0.00 0.00 39 1009.7
20260504233041 21 185 9.7 27.4 0.00 0.00 0.00 39 1009.6
20260504232531 21 161 11.3 27.4 0.00 0.00 0.00 39 1009.7
20260504232030 21 159 11.3 22.5 0.00 0.00 0.00 38 1009.8
20260504231538 22 175 9.7 16.1 0.00 0.00 0.00 38 1009.7
20260504231030 22 185 8.0 16.1 0.00 0.00 0.00 38 1009.7
20260504230530 22 168 9.7 19.3 0.00 0.00 0.00 37 1009.7
20260504230041 22 182 8.0 19.3 0.00 0.00 0.00 37 1009.8
20260504225532 22 137 9.7 22.5 0.00 0.00 0.00 38 1009.8
20260504225027 22 159 8.0 25.7 0.00 0.00 0.00 37 1009.8
20260504224543 22 142 12.9 25.7 0.00 0.00 0.00 36 1009.9
20260504224026 22 192 9.7 17.7 0.00 0.00 0.00 36 1009.9
20260504223529 22 162 8.0 24.1 0.00 0.00 0.00 37 1009.9
20260504223044 22 126 12.9 24.1 0.00 0.00 0.00 36 1009.8
20260504222532 22 209 12.9 22.5 0.00 0.00 0.00 37 1009.8
20260504222027 22 207 8.0 20.9 0.00 0.00 0.00 37 1009.9
20260504221545 22 142 9.7 20.9 0.00 0.00 0.00 36 1009.8
20260504221027 22 149 6.4 17.7 0.00 0.00 0.00 38 1009.8
20260504220527 22 209 8.0 24.1 0.00 0.00 0.00 37 1009.9
20260504220046 22 176 9.7 24.1 0.00 0.00 0.00 37 1009.7
20260504215527 22 165 6.4 20.9 0.00 0.00 0.00 36 1009.8
20260504215029 22 171 9.7 20.9 0.00 0.00 0.00 36 1009.7
20260504214548 22 188 8.0 17.7 0.00 0.00 0.00 36 1009.8
20260504214026 22 168 4.8 20.9 0.00 0.00 0.00 37 1009.9
20260504213533 22 221 11.3 24.1 0.00 0.00 0.00 35 1009.9
20260504213042 22 239 9.7 22.5 0.00 0.00 0.00 35 1009.9
20260504212530 22 93 8.0 24.1 0.00 0.00 0.00 36 1009.9
20260504212031 22 155 11.3 29.0 0.00 0.00 0.00 35 1009.9
20260504211552 22 167 14.5 29.0 0.00 0.00 0.00 35 1009.9
20260504211030 22 150 12.9 24.1 0.00 0.00 0.00 36 1009.9
20260504210530 22 176 11.3 20.9 0.00 0.00 0.00 35 1010.0
20260504210046 22 159 6.4 20.9 0.00 0.00 0.00 37 1010.0
20260504205530 22 170 12.9 29.0 0.00 0.00 0.00 36 1009.8
20260504205029 22 170 9.7 30.6 0.00 0.00 0.00 37 1010.0
20260504204545 22 177 14.5 30.6 0.00 0.00 0.00 35 1009.9
20260504204030 22 237 8.0 24.1 0.00 0.00 0.00 37 1009.9
20260504203532 22 140 6.4 24.1 0.00 0.00 0.00 38 1009.9
20260504203042 22 227 11.3 22.5 0.00 0.00 0.00 37 1009.9
20260504202529 22 178 12.9 29.0 0.00 0.00 0.00 37 1010.0
20260504202029 22 162 11.3 29.0 0.00 0.00 0.00 37 1010.2
20260504201601 22 186 6.4 27.4 0.00 0.00 0.00 37 1010.2
20260504201033 22 148 11.3 27.4 0.00 0.00 0.00 38 1010.2
20260504200530 22 178 9.7 19.3 0.00 0.00 0.00 36 1010.2
20260504200047 22 301 4.8 19.3 0.00 0.00 0.00 36 1010.4
20260504195532 22 139 8.0 25.7 0.00 0.00 0.00 37 1010.6
20260504195031 22 184 4.8 25.7 0.00 0.00 0.00 40 1010.7
20260504194550 22 159 9.7 22.5 0.00 0.00 0.00 37 1010.7
20260504194032 22 263 6.4 17.7 0.00 0.00 0.00 37 1010.8
20260504193534 22 188 9.7 14.5 0.00 0.00 0.00 37 1010.8
20260504193044 22 207 3.2 24.1 0.00 0.00 0.00 37 1010.8
20260504192532 21 199 11.3 24.1 0.00 0.00 0.00 38 1011.0
20260504192032 21 198 6.4 19.3 0.00 0.00 0.00 39 1011.2
20260504191554 21 184 11.3 24.1 0.00 0.00 0.00 37 1011.1
20260504191031 21 222 8.0 24.1 0.00 0.00 0.00 37 1011.2
20260504190534 21 244 9.7 20.9 0.00 0.00 0.00 41 1011.2
20260504190038 21 184 9.7 20.9 0.00 0.00 0.00 37 1011.3
20260504185531 21 193 4.8 22.5 0.00 0.00 0.00 38 1011.4
20260504185031 21 231 8.0 22.5 0.00 0.00 0.00 37 1011.4
20260504184552 21 159 11.3 24.1 0.00 0.00 0.00 37 1011.6
20260504184032 21 194 8.0 24.1 0.00 0.00 0.00 37 1011.8
20260504183532 21 169 6.4 19.3 0.00 0.00 0.00 40 1011.8
20260504183045 21 234 9.7 19.3 0.00 0.00 0.00 36 1011.9
20260504182532 21 205 6.4 19.3 0.00 0.00 0.00 39 1011.9
20260504182031 21 270 8.0 19.3 0.00 0.00 0.00 38 1011.9
20260504181547 21 175 9.7 24.1 0.00 0.00 0.00 38 1012.1
20260504181034 21 202 9.7 24.1 0.00 0.00 0.00 37 1012.2
20260504180531 21 130 8.0 24.1 0.00 0.00 0.00 36 1012.3
20260504180044 21 198 9.7 20.9 0.00 0.00 0.00 37 1012.3
20260504175533 20 257 8.0 20.9 0.00 0.00 0.00 37 1012.2
20260504175033 20 165 11.3 25.7 0.00 0.00 0.00 38 1012.3
20260504174540 20 225 14.5 25.7 0.00 0.00 0.00 37 1012.4
20260504174033 20 132 11.3 25.7 0.00 0.00 0.00 38 1012.3
20260504173532 20 192 9.7 19.3 0.00 0.00 0.00 38 1012.3
20260504173045 20 150 9.7 17.7 0.00 0.00 0.00 38 1012.4
20260504172531 20 213 8.0 17.7 0.00 0.00 0.00 38 1012.5
20260504172031 20 244 8.0 17.7 0.00 0.00 0.00 38 1012.5